Date String (YYYY-MM-DD hh:mm:ss) UTC,Instrument flags,Ambient pressure (hPa),Sample flow (lpm),Bypass flow (lpm),Sample temperature (°C),Ambient temperature (°C),ASC tube jacket temperature (°C),LED temperature (°C),Box temperature (°C),Sample RH (%),Span deviation,Mass concentration (μg/m³),Mass concentration (μg/m³),Mass concentration (μg/m³)
DateTimeUTC,F1_M11,P_M11,Q1_M11,Q2_M11,T1_M11,T2_M11,T3_M11,T4_M11,T5_M11,U1_M11,ZSPAN_M11,X0_M11,X2_M11,X1_M11
2022-03-30 15:00:00,,0819.1,4.99,0.00,21.3,21.6,00.0,30.3,23.0,15.1,0000.9,0009.77,0006.38,0006.02
2022-03-30 15:01:00,,0819.2,5.00,0.00,21.3,21.4,00.0,30.3,22.9,15.0,0001.2,0009.43,0006.39,0006.01
2022-03-30 15:02:00,,0819.2,5.00,0.00,21.3,21.0,00.0,30.3,22.8,15.0,0000.5,0009.32,0006.34,0005.94
2022-03-30 15:03:00,,0819.2,5.00,0.00,21.2,20.7,00.0,30.3,22.7,15.1,0000.1,0009.39,0006.38,0005.94
2022-03-30 15:04:00,,0819.2,5.00,0.00,21.1,20.5,00.0,30.3,22.6,15.2,-000.1,0009.39,0006.36,0005.91
2022-03-30 15:05:00,,0819.1,5.00,0.00,21.1,20.4,00.0,30.3,22.6,15.3,-000.1,0009.38,0006.34,0005.90
2022-03-30 15:06:00,,0819.1,5.00,0.00,21.0,20.2,00.0,30.3,22.5,15.5,-000.3,0009.42,0006.32,0005.89
2022-03-30 15:07:00,,0819.1,5.00,0.00,21.0,20.0,00.0,30.2,22.5,15.6,-000.6,0009.49,0006.36,0005.91
2022-03-30 15:08:00,,0819.1,5.01,0.00,20.9,19.9,00.0,30.2,22.4,15.6,-000.2,0009.31,0006.43,0005.97
2022-03-30 15:09:00,,0819.1,5.01,0.00,20.9,19.8,00.0,30.2,22.3,15.8,0000.0,0009.31,0006.40,0005.94
2022-03-30 15:10:00,,0819.1,5.00,0.00,20.8,19.8,00.0,30.1,22.3,15.9,0000.0,0009.79,0006.33,0005.87
2022-03-30 15:11:00,,0819.1,4.99,0.00,20.9,20.8,00.0,30.1,22.6,15.6,0000.0,0010.30,0006.32,0005.87
2022-03-30 15:12:00,,0819.1,5.01,0.00,21.1,22.2,00.0,30.2,23.0,15.7,0000.0,0010.26,0006.31,0005.88
2022-03-30 15:13:00,,0819.0,4.99,0.00,21.3,22.9,00.0,30.2,23.3,15.5,0000.0,0010.37,0006.39,0005.96
2022-03-30 15:14:00,,0818.9,5.01,0.00,21.3,22.5,00.0,30.3,23.2,15.3,0000.0,0010.56,0006.60,0006.18
2022-03-30 15:15:00,,0819.0,5.00,0.00,21.3,22.1,00.0,30.3,23.1,15.3,-000.2,0010.70,0006.75,0006.32
2022-03-30 15:16:00,,0819.0,4.99,0.00,21.3,21.8,00.0,30.3,23.0,15.3,-000.3,0010.76,0006.86,0006.40
2022-03-30 15:17:00,,0819.0,5.02,0.00,21.3,21.5,00.0,30.3,23.0,15.4,-000.1,0010.75,0006.91,0006.46
2022-03-30 15:18:00,,0819.0,4.98,0.00,21.3,21.2,00.0,30.3,22.9,15.5,0000.3,0010.70,0006.92,0006.49
2022-03-30 15:19:00,,0819.0,5.00,0.00,21.2,21.0,00.0,30.3,22.8,15.4,0000.5,0010.69,0006.91,0006.47
2022-03-30 15:20:00,,0819.0,5.01,0.00,21.2,20.8,00.0,30.3,22.8,15.4,0001.1,0010.78,0006.93,0006.48
2022-03-30 15:21:00,,0818.9,5.00,0.00,21.2,20.7,00.0,30.3,22.8,15.5,0001.0,0010.75,0006.91,0006.45
2022-03-30 15:22:00,,0819.0,5.00,0.00,21.1,20.5,00.0,30.3,22.7,15.7,0001.1,0010.28,0006.90,0006.43
2022-03-30 15:23:00,,0818.9,5.01,0.00,21.1,20.5,00.0,30.3,22.7,15.8,0000.6,0010.45,0006.91,0006.44
2022-03-30 15:24:00,,0818.9,4.98,0.00,21.1,20.4,00.0,30.2,22.7,15.8,0000.3,0010.37,0006.84,0006.38
2022-03-30 15:25:00,,0819.0,5.01,0.00,21.1,20.4,00.0,30.2,22.7,15.9,0000.0,0010.05,0006.59,0006.15
2022-03-30 15:26:00,,0819.0,5.00,0.00,21.1,20.4,00.0,30.2,22.6,15.9,0000.0,0009.76,0006.41,0006.00
2022-03-30 15:27:00,,0819.0,5.01,0.00,21.0,20.3,00.0,30.2,22.6,15.9,0000.0,0009.74,0006.29,0005.92
2022-03-30 15:28:00,,0819.0,5.00,0.00,21.0,20.2,00.0,30.2,22.7,15.8,0000.0,0009.73,0006.25,0005.89
2022-03-30 15:29:00,,0819.0,5.00,0.00,21.0,20.2,00.0,30.2,22.7,15.8,0000.0,0009.71,0006.23,0005.88
2022-03-30 15:30:00,,0819.1,5.00,0.00,21.0,20.2,00.0,30.2,22.6,15.9,0000.0,0009.64,0006.22,0005.89
2022-03-30 15:31:00,,0819.1,4.99,0.00,21.0,20.2,00.0,30.2,22.6,16.0,0000.0,0009.52,0006.22,0005.90
2022-03-30 15:32:00,,0819.0,4.99,0.00,21.0,20.2,00.0,30.1,22.6,16.0,0000.0,0009.10,0006.28,0005.94
2022-03-30 15:33:00,,0819.0,5.01,0.00,21.0,20.2,00.0,30.1,22.6,15.9,0000.0,0009.50,0006.30,0005.97
2022-03-30 15:34:00,,0819.1,4.99,0.00,21.0,20.7,00.0,30.1,22.7,15.8,0000.0,0009.53,0006.33,0006.00
2022-03-30 15:35:00,,0819.1,5.01,0.00,21.2,21.9,00.0,30.2,23.1,15.6,0000.0,0009.55,0006.36,0006.03
2022-03-30 15:36:00,,0819.1,4.99,0.00,21.4,22.8,00.0,30.2,23.4,15.6,0000.0,0009.61,0006.40,0006.07
2022-03-30 15:37:00,,0819.0,5.01,0.00,21.5,22.6,00.0,30.3,23.5,16.0,0000.0,0009.87,0006.43,0006.11
2022-03-30 15:38:00,,0819.0,4.98,0.00,21.5,22.3,00.0,30.3,23.4,15.7,0000.0,0009.84,0006.47,0006.14
2022-03-30 15:39:00,,0819.0,5.00,0.00,21.5,22.0,00.0,30.3,23.4,16.2,0000.0,0009.95,0006.57,0006.21
2022-03-30 15:40:00,,0818.9,5.02,0.00,21.5,21.8,00.0,30.4,23.3,15.6,0000.0,0010.15,0006.76,0006.37
2022-03-30 15:41:00,,0818.9,4.99,0.00,21.5,21.6,00.0,30.4,23.2,15.5,0000.0,0010.31,0006.92,0006.50
2022-03-30 15:42:00,,0818.9,5.00,0.00,21.5,21.4,00.0,30.4,23.2,15.4,0000.0,0010.38,0007.00,0006.60
2022-03-30 15:43:00,,0818.9,5.01,0.00,21.5,21.3,00.0,30.4,23.2,15.4,0000.7,0010.43,0007.07,0006.68
2022-03-30 15:44:00,,0818.9,5.00,0.00,21.5,21.1,00.0,30.4,23.2,15.8,0001.1,0010.07,0007.18,0006.75
2022-03-30 15:45:00,,0819.0,5.00,0.00,21.5,20.9,00.0,30.4,23.2,15.6,0001.4,0010.20,0007.33,0006.86
2022-03-30 15:46:00,,0819.0,5.00,0.00,21.5,20.8,00.0,30.4,23.2,15.8,0000.9,0010.46,0007.50,0007.00
2022-03-30 15:47:00,,0819.0,5.00,0.00,21.5,20.7,00.0,30.4,23.2,16.1,0001.2,0010.59,0007.60,0007.09
2022-03-30 15:48:00,,0819.0,5.00,0.00,21.5,20.8,00.0,30.4,23.2,16.6,0001.2,0010.55,0007.68,0007.14
2022-03-30 15:49:00,,0819.0,4.99,0.00,21.5,20.8,00.0,30.4,23.1,16.2,0001.2,0010.74,0007.79,0007.18
2022-03-30 15:50:00,,0818.9,5.00,0.00,21.5,20.7,00.0,30.4,23.2,15.9,0000.5,0010.77,0007.78,0007.19
2022-03-30 15:51:00,,0819.0,5.00,0.00,21.5,20.8,00.0,30.5,23.2,16.1,0000.1,0010.63,0007.69,0007.13
2022-03-30 15:52:00,,0818.9,5.00,0.00,21.5,20.8,00.0,30.5,23.2,15.8,0000.3,0010.53,0007.64,0007.11
2022-03-30 15:53:00,,0818.9,5.00,0.00,21.5,20.8,00.0,30.5,23.2,15.8,0000.1,0010.55,0007.67,0007.13
2022-03-30 15:54:00,,0818.9,5.00,0.00,21.5,20.8,00.0,30.5,23.2,16.0,-000.2,0010.62,0007.74,0007.20
2022-03-30 15:55:00,,0818.9,5.00,0.00,21.5,20.9,00.0,30.5,23.2,16.1,-000.1,0010.70,0007.80,0007.26
2022-03-30 15:56:00,,0818.9,5.00,0.00,21.5,20.9,00.0,30.5,23.2,16.5,0000.2,0010.67,0007.79,0007.28
2022-03-30 15:57:00,,0818.9,5.00,0.00,21.5,21.0,00.0,30.5,23.2,16.4,0000.9,0010.76,0007.76,0007.27
2022-03-30 15:58:00,,0818.9,5.00,0.00,21.5,21.0,00.0,30.5,23.2,16.3,0000.7,0011.19,0007.78,0007.27
2022-03-30 15:59:00,,0819.0,5.00,0.00,21.5,20.9,00.0,30.5,23.2,16.6,0000.6,0011.10,0007.80,0007.33
